Hourly Data Report for October 13, 2014

All times are specified in Local Standard Time (LST). Add 1 hour to adjust for Daylight Saving Time where and when it is observed.

PENTICTON A
BRITISH COLUMBIA

49°27'45.000" N
119°36'08.000" W
344.40 m
1126146
71889
YYF

Download Data

Hourly Data (October 2014)
Hourly Data Report for October 13, 2014
Temp Definition
°C
Dew Point Temp Definition
°C
Rel Hum Definition
%
Wind Dir Definition
10's deg

Wind Spd Definition
km/h
Visibility Definition
km
Stn Press Definition
kPa
Hmdx Definition


Wind Chill Definition


Weather Definition


TIME
00:00 Legend Double Dagger 9.6 8.5 93 36 1 24.1 97.78     LegendNANA
01:00 Legend Double Dagger 9.0 7.9 93 7 6 24.1 97.76     Mostly Cloudy
02:00 Legend Double Dagger 9.5 8.3 92 10 6 24.1 97.70     LegendNANA
03:00 Legend Double Dagger 8.6 7.7 94 30 4 24.1 97.65     LegendNANA
04:00 Legend Double Dagger 7.0 6.1 94 6 4 24.1 97.57     Mostly Cloudy
05:00 Legend Double Dagger 7.7 6.5 92 8 9 24.1 97.52     LegendNANA
06:00 Legend Double Dagger 7.7 6.7 93 36 1 24.1 97.55     LegendNANA
07:00 Legend Double Dagger 7.6 6.7 94 36 1 24.1 97.49     Mostly Cloudy
08:00 Legend Double Dagger 9.3 7.9 91 35 9 24.1 97.46     LegendNANA
09:00 Legend Double Dagger 10.2 8.7 90 2 6 24.1 97.37     LegendNANA
10:00 Legend Double Dagger 12.2 6.7 69 14 20 24.1 97.22     Mostly Cloudy
11:00 Legend Double Dagger 14.9 6.3 56 17 16 24.1 97.09     LegendNANA
12:00 Legend Double Dagger 17.2 5.0 44 18 48 24.1 96.93     LegendNANA
13:00 Legend Double Dagger 18.8 4.3 38 18 47 24.1 96.76     Cloudy
14:00 Legend Double Dagger 18.8 5.1 40 17 30 24.1 96.62     LegendNANA
15:00 Legend Double Dagger 20.2 3.1 32 17 40 24.1 96.52     LegendNANA
16:00 Legend Double Dagger 19.8 4.1 35 18 42 24.1 96.41     Mostly Cloudy
17:00 Legend Double Dagger 18.5 4.8 40 17 29 24.1 96.36     LegendNANA
18:00 Legend Double Dagger 18.2 4.9 41 18 25 24.1 96.34     LegendNANA
19:00 Legend Double Dagger 18.0 4.0 39 18 19 24.1 96.25     Mostly Cloudy
20:00 Legend Double Dagger 18.4 2.8 35 19 34 24.1 96.20     LegendNANA
21:00 Legend Double Dagger 18.2 3.4 37 18 32 24.1 96.19     LegendNANA
22:00 Legend Double Dagger 18.2 2.2 34 18 30 24.1 96.14     Mostly Cloudy
23:00 Legend Double Dagger 17.4 3.4 39 17 18 24.1 96.10     LegendNANA

Notes on Data Quality.

Legend

  • E = Estimated
  • M = Missing
  • NA = Not Available
  • ‡ = Partner data that is not subject to review by the National Climate Archives
Date modified: